• In Belgium
  • List of Countries
  • For 7 days
  • Water Temperature
  • Satellite Maps
  • Weather Map
  • Weather Widgets
  • user-avatar
    Login

    Hourly Weather Vanadzor

    Today, 24 June, Sunday

    Time Temperature Precipitation Wind Pressure Humidity
    00:00 +14°C° 0.2 mm 2 mps 635 mmHg 86%
    01:00 +13°C° 0.1 mm 2 mps 635 mmHg 86%
    02:00 +13°C° 0.1 mm 2 mps 635 mmHg 86%
    03:00 +13°C° 0 mm 2 mps 635 mmHg 87%
    04:00 +14°C° 0 mm 1 mps 635 mmHg 86%
    05:00 +15°C° 0 mm 1 mps 635 mmHg 85%
    06:00 +15°C° 0 mm 1 mps 636 mmHg 84%
    07:00 +18°C° 0 mm 1 mps 636 mmHg 78%
    08:00 +20°C° 0 mm 1 mps 636 mmHg 72%
    09:00 +22°C° 0 mm 1 mps 637 mmHg 68%
    10:00 +23°C° 0.3 mm 2 mps 637 mmHg 66%
    11:00 +24°C° 0.3 mm 2 mps 637 mmHg 64%
    12:00 +25°C° 0.3 mm 2 mps 637 mmHg 61%
    13:00 +25°C° 1.1 mm 2 mps 637 mmHg 61%
    14:00 +25°C° 1.1 mm 2 mps 637 mmHg 61%
    15:00 +25°C° 1.1 mm 2 mps 637 mmHg 61%
    16:00 +24°C° 1.1 mm 2 mps 637 mmHg 65%
    17:00 +24°C° 1.1 mm 2 mps 637 mmHg 69%
    18:00 +23°C° 1.1 mm 2 mps 637 mmHg 72%
    19:00 +20°C° 0.6 mm 2 mps 637 mmHg 76%
    20:00 +18°C° 0.6 mm 2 mps 636 mmHg 80%
    21:00 +16°C° 0.6 mm 2 mps 636 mmHg 84%
    22:00 +16°C° 0.6 mm 2 mps 636 mmHg 86%
    23:00 +16°C° 0.6 mm 2 mps 637 mmHg 87%

    Tomorrow, 25 June, Monday

    Time Temperature Precipitation Wind Pressure Humidity
    00:00 +15°C° 0.6 mm 2 mps 637 mmHg 89%
    01:00 +15°C° 0.1 mm 2 mps 637 mmHg 89%
    02:00 +15°C° 0.1 mm 2 mps 637 mmHg 90%
    03:00 +15°C° 0.1 mm 2 mps 636 mmHg 91%
    04:00 +15°C° 0 mm 2 mps 637 mmHg 90%
    05:00 +15°C° 0 mm 2 mps 637 mmHg 89%
    06:00 +16°C° 0 mm 1 mps 637 mmHg 88%
    07:00 +18°C° 0 mm 2 mps 637 mmHg 82%
    08:00 +19°C° 0 mm 2 mps 637 mmHg 76%
    09:00 +21°C° 0 mm 2 mps 638 mmHg 70%
    10:00 +23°C° 0.1 mm 2 mps 638 mmHg 67%
    11:00 +24°C° 0.1 mm 2 mps 638 mmHg 65%
    12:00 +25°C° 0.1 mm 3 mps 638 mmHg 62%
    13:00 +25°C° 0.1 mm 3 mps 638 mmHg 62%
    14:00 +25°C° 0.1 mm 3 mps 637 mmHg 61%
    15:00 +26°C° 0.1 mm 3 mps 637 mmHg 61%
    16:00 +25°C° 0.3 mm 3 mps 637 mmHg 65%
    17:00 +24°C° 0.3 mm 3 mps 637 mmHg 69%
    18:00 +24°C° 0.3 mm 2 mps 637 mmHg 72%
    19:00 +21°C° 0.3 mm 2 mps 637 mmHg 75%
    20:00 +19°C° 0.3 mm 2 mps 636 mmHg 77%
    21:00 +17°C° 0.3 mm 2 mps 636 mmHg 80%
    22:00 +17°C° 0 mm 2 mps 636 mmHg 80%
    23:00 +16°C° 0 mm 2 mps 636 mmHg 79%

    Day after tomorrow, 26 June, Tuesday

    Time Temperature Precipitation Wind Pressure Humidity
    00:00 +16°C° 0 mm 2 mps 636 mmHg 79%
    01:00 +16°C° 0 mm 2 mps 636 mmHg 79%
    02:00 +15°C° 0 mm 2 mps 636 mmHg 78%
    03:00 +15°C° 0 mm 2 mps 636 mmHg 78%
    04:00 +16°C° 0 mm 2 mps 636 mmHg 78%
    05:00 +16°C° 0 mm 2 mps 636 mmHg 79%
    06:00 +18°C° 0 mm 1 mps 636 mmHg 79%
    07:00 +19°C° 0 mm 1 mps 636 mmHg 73%
    08:00 +20°C° 0 mm 2 mps 636 mmHg 67%
    09:00 +23°C° 0 mm 2 mps 637 mmHg 61%
    10:00 +24°C° 0 mm 2 mps 637 mmHg 59%
    11:00 +25°C° 0 mm 2 mps 637 mmHg 57%
    12:00 +26°C° 0 mm 2 mps 637 mmHg 55%
    13:00 +26°C° 0.1 mm 2 mps 637 mmHg 55%
    14:00 +27°C° 0.1 mm 2 mps 636 mmHg 55%
    15:00 +27°C° 0.1 mm 2 mps 636 mmHg 55%
    16:00 +26°C° 0.1 mm 2 mps 636 mmHg 59%
    17:00 +26°C° 0.1 mm 2 mps 636 mmHg 63%
    18:00 +25°C° 0.1 mm 2 mps 635 mmHg 67%
    19:00 +23°C° 0.1 mm 2 mps 635 mmHg 69%
    20:00 +20°C° 0.1 mm 2 mps 635 mmHg 72%
    21:00 +18°C° 0.1 mm 2 mps 635 mmHg 74%
    22:00 +17°C° 0 mm 2 mps 635 mmHg 72%
    23:00 +17°C° 0 mm 2 mps 635 mmHg 71%

    27 June, Wednesday

    Time Temperature Precipitation Wind Pressure Humidity
    00:00 +16°C° 0 mm 2 mps 635 mmHg 69%
    01:00 +16°C° 0 mm 2 mps 634 mmHg 70%
    02:00 +16°C° 0 mm 2 mps 634 mmHg 71%
    03:00 +15°C° 0 mm 2 mps 634 mmHg 71%
    04:00 +16°C° 0 mm 2 mps 635 mmHg 72%
    05:00 +17°C° 0 mm 2 mps 635 mmHg 73%
    06:00 +18°C° 0 mm 1 mps 635 mmHg 73%
    07:00 +20°C° 0 mm 1 mps 636 mmHg 66%
    08:00 +22°C° 0 mm 1 mps 636 mmHg 60%
    09:00 +25°C° 0 mm 1 mps 637 mmHg 53%
    10:00 +26°C° 0 mm 1 mps 637 mmHg 52%
    11:00 +27°C° 0 mm 2 mps 637 mmHg 50%
    12:00 +28°C° 0 mm 2 mps 637 mmHg 49%
    13:00 +28°C° 0 mm 2 mps 636 mmHg 49%
    14:00 +28°C° 0 mm 2 mps 636 mmHg 49%
    15:00 +29°C° 0 mm 2 mps 636 mmHg 49%
    16:00 +28°C° 0.1 mm 2 mps 636 mmHg 54%
    17:00 +27°C° 0.1 mm 2 mps 636 mmHg 59%
    18:00 +26°C° 0.1 mm 2 mps 635 mmHg 64%
    19:00 +24°C° 0 mm 2 mps 635 mmHg 67%
    20:00 +21°C° 0 mm 2 mps 635 mmHg 70%
    21:00 +19°C° 0 mm 2 mps 635 mmHg 72%
    22:00 +18°C° 0 mm 2 mps 635 mmHg 71%
    23:00 +18°C° 0 mm 2 mps 635 mmHg 69%

    28 June, Thursday

    Time Temperature Precipitation Wind Pressure Humidity
    00:00 +17°C° 0 mm 2 mps 635 mmHg 67%
    01:00 +17°C° 0 mm 2 mps 635 mmHg 67%
    02:00 +17°C° 0 mm 2 mps 635 mmHg 68%
    03:00 +16°C° 0 mm 2 mps 635 mmHg 68%
    04:00 +17°C° 0 mm 2 mps 636 mmHg 69%
    05:00 +17°C° 0 mm 2 mps 636 mmHg 71%
    06:00 +18°C° 0 mm 2 mps 636 mmHg 72%
    07:00 +20°C° 0 mm 2 mps 637 mmHg 67%
    08:00 +23°C° 0 mm 2 mps 637 mmHg 61%
    09:00 +25°C° 0 mm 2 mps 638 mmHg 55%
    10:00 +25°C° 0 mm 2 mps 638 mmHg 54%
    11:00 +26°C° 0 mm 2 mps 638 mmHg 53%
    12:00 +27°C° 0 mm 3 mps 638 mmHg 52%
    13:00 +28°C° 0 mm 3 mps 637 mmHg 52%
    14:00 +28°C° 0 mm 3 mps 637 mmHg 52%
    15:00 +28°C° 0 mm 3 mps 637 mmHg 52%
    16:00 +27°C° 0 mm 3 mps 637 mmHg 56%
    17:00 +27°C° 0 mm 3 mps 637 mmHg 60%
    18:00 +26°C° 0 mm 2 mps 636 mmHg 63%
    19:00 +24°C° 0.1 mm 2 mps 636 mmHg 64%
    20:00 +21°C° 0.1 mm 2 mps 636 mmHg 65%
    21:00 +19°C° 0.1 mm 2 mps 636 mmHg 66%
    22:00 +18°C° 0 mm 2 mps 636 mmHg 66%
    23:00 +17°C° 0 mm 2 mps 636 mmHg 66%

    29 June, Friday

    Time Temperature Precipitation Wind Pressure Humidity
    00:00 +17°C° 0 mm 2 mps 636 mmHg 65%
    01:00 +16°C° 0 mm 2 mps 636 mmHg 66%
    02:00 +16°C° 0 mm 2 mps 636 mmHg 66%
    03:00 +16°C° 0 mm 2 mps 635 mmHg 67%
    04:00 +16°C° 0 mm 2 mps 636 mmHg 68%
    05:00 +17°C° 0 mm 2 mps 636 mmHg 69%
    06:00 +19°C° 0 mm 1 mps 636 mmHg 70%
    07:00 +20°C° 0 mm 2 mps 636 mmHg 64%
    08:00 +23°C° 0 mm 2 mps 637 mmHg 58%
    09:00 +25°C° 0 mm 2 mps 637 mmHg 53%
    10:00 +26°C° 0 mm 2 mps 637 mmHg 51%
    11:00 +27°C° 0 mm 2 mps 637 mmHg 49%
    12:00 +28°C° 0 mm 2 mps 637 mmHg 48%
    13:00 +29°C° 0 mm 2 mps 637 mmHg 48%
    14:00 +29°C° 0 mm 2 mps 637 mmHg 49%
    15:00 +29°C° 0 mm 3 mps 636 mmHg 49%
    16:00 +28°C° 0 mm 2 mps 636 mmHg 54%
    17:00 +28°C° 0 mm 2 mps 636 mmHg 58%
    18:00 +27°C° 0 mm 2 mps 636 mmHg 63%
    19:00 +24°C° 0 mm 2 mps 636 mmHg 66%
    20:00 +21°C° 0 mm 2 mps 635 mmHg 68%
    21:00 +19°C° 0 mm 2 mps 635 mmHg 70%
    22:00 +19°C° 0 mm 2 mps 635 mmHg 68%
    23:00 +19°C° 0 mm 2 mps 635 mmHg 65%
    Show more